| time (UTC) | temp F | wind direction | speed MPH | gust MPH | rain 1hr in | rain 24hr in | rain mn in | humidity % | barometer mb |
| 20260505164314 | 76 | 0 | 12.0 | 23.0 | 0.00 | 0.04 | 0.04 | 45 | 1009.9 |
| 20260505164048 | 76 | 0 | 11.0 | 26.0 | 0.00 | 0.04 | 0.04 | 45 | 1009.9 |
| 20260505163312 | 76 | 0 | 12.0 | 26.0 | 0.00 | 0.04 | 0.04 | 46 | 1010.0 |
| 20260505162812 | 75 | 0 | 13.0 | 24.0 | 0.00 | 0.04 | 0.04 | 46 | 1010.3 |
| 20260505162312 | 75 | 0 | 12.0 | 25.0 | 0.00 | 0.04 | 0.04 | 45 | 1010.1 |
| 20260505161812 | 75 | 126 | 12.0 | 25.0 | 0.00 | 0.04 | 0.04 | 46 | 1010.1 |
| 20260505161310 | 75 | 0 | 13.0 | 25.0 | 0.00 | 0.04 | 0.04 | 45 | 1010.0 |
| 20260505160811 | 75 | 288 | 13.0 | 25.0 | 0.00 | 0.04 | 0.04 | 43 | 1010.3 |
| 20260505160541 | 75 | 0 | 11.0 | 24.0 | 0.00 | 0.04 | 0.04 | 46 | 1010.2 |
| 20260505152805 | 74 | 0 | 12.0 | 23.0 | 0.00 | 0.04 | 0.04 | 46 | 1010.4 |
| 20260505152305 | 74 | 0 | 10.0 | 20.0 | 0.00 | 0.04 | 0.04 | 46 | 1010.5 |
| 20260505151805 | 74 | 0 | 10.0 | 21.0 | 0.00 | 0.04 | 0.04 | 49 | 1010.3 |
| 20260505151305 | 73 | 0 | 11.0 | 22.0 | 0.00 | 0.04 | 0.04 | 47 | 1010.2 |
| 20260505150805 | 73 | 0 | 13.0 | 24.0 | 0.00 | 0.04 | 0.04 | 47 | 1010.3 |
| 20260505150535 | 73 | 0 | 12.0 | 24.0 | 0.00 | 0.04 | 0.04 | 47 | 1010.5 |
| 20260505140259 | 70 | 0 | 8.0 | 20.0 | 0.00 | 0.04 | 0.04 | 51 | 1010.9 |
| 20260505130248 | 69 | 0 | 8.0 | 17.0 | 0.00 | 0.04 | 0.04 | 52 | 1010.6 |
| 20260505124746 | 68 | 0 | 10.0 | 20.0 | 0.00 | 0.04 | 0.04 | 53 | 1010.5 |
| 20260505124244 | 67 | 0 | 10.0 | 17.0 | 0.00 | 0.04 | 0.04 | 52 | 1010.4 |
| 20260505123744 | 67 | 0 | 9.0 | 16.0 | 0.00 | 0.04 | 0.04 | 53 | 1010.4 |
| 20260505123242 | 67 | 0 | 9.0 | 17.0 | 0.00 | 0.04 | 0.04 | 53 | 1010.4 |
| 20260505122741 | 67 | 0 | 9.0 | 18.0 | 0.00 | 0.04 | 0.04 | 54 | 1010.6 |
| 20260505122244 | 67 | 0 | 8.0 | 20.0 | 0.00 | 0.04 | 0.04 | 53 | 1010.6 |
| 20260505122239 | 67 | 0 | 10.0 | 20.0 | 0.00 | 0.04 | 0.04 | 53 | 1010.6 |
| 20260505121236 | 67 | 0 | 7.0 | 15.0 | 0.00 | 0.04 | 0.04 | 53 | 1010.6 |
| 20260505120737 | 66 | 202 | 8.0 | 15.0 | 0.00 | 0.04 | 0.04 | 55 | 1010.5 |
| 20260505120239 | 66 | 0 | 8.0 | 15.0 | 0.00 | 0.04 | 0.04 | 55 | 1010.6 |
| 20260505120009 | 65 | 0 | 8.0 | 18.0 | 0.00 | 0.04 | 0.04 | 55 | 1010.6 |
| 20260505115508 | 65 | 186 | 8.0 | 18.0 | 0.00 | 0.04 | 0.04 | 55 | 1010.5 |
| 20260505114736 | 65 | 0 | 8.0 | 14.0 | 0.00 | 0.04 | 0.04 | 56 | 1010.4 |
| 20260505114507 | 65 | 0 | 7.0 | 14.0 | 0.00 | 0.04 | 0.04 | 56 | 1010.4 |
| 20260505114007 | 64 | 169 | 7.0 | 13.0 | 0.00 | 0.04 | 0.04 | 56 | 1010.5 |
| 20260505113235 | 64 | 0 | 7.0 | 13.0 | 0.00 | 0.04 | 0.04 | 56 | 1010.7 |
| 20260505112735 | 64 | 0 | 7.0 | 13.0 | 0.00 | 0.04 | 0.04 | 57 | 1010.6 |
| 20260505112235 | 64 | 0 | 7.0 | 12.0 | 0.00 | 0.04 | 0.04 | 56 | 1010.5 |
| 20260505111735 | 64 | 0 | 7.0 | 12.0 | 0.00 | 0.04 | 0.04 | 57 | 1010.5 |
| 20260505111236 | 64 | 0 | 5.0 | 12.0 | 0.00 | 0.04 | 0.04 | 57 | 1010.5 |
| 20260505110738 | 64 | 202 | 5.0 | 12.0 | 0.00 | 0.04 | 0.04 | 57 | 1010.5 |
| 20260505110234 | 63 | 0 | 6.0 | 12.0 | 0.00 | 0.04 | 0.04 | 57 | 1010.4 |
| 20260505101732 | 63 | 0 | 6.0 | 13.0 | 0.00 | 0.04 | 0.04 | 57 | 1009.7 |
| 20260505101224 | 63 | 0 | 7.0 | 12.0 | 0.00 | 0.04 | 0.04 | 57 | 1009.6 |
| 20260505100724 | 62 | 0 | 7.0 | 12.0 | 0.00 | 0.04 | 0.04 | 58 | 1009.6 |
| 20260505100224 | 62 | 0 | 6.0 | 10.0 | 0.00 | 0.04 | 0.04 | 58 | 1009.4 |
| 20260505095725 | 62 | 0 | 5.0 | 10.0 | 0.00 | 0.04 | 0.04 | 59 | 1009.5 |
| 20260505095223 | 62 | 0 | 4.0 | 9.0 | 0.00 | 0.04 | 0.04 | 60 | 1009.3 |
| 20260505094722 | 61 | 0 | 4.0 | 9.0 | 0.00 | 0.04 | 0.04 | 60 | 1009.2 |
| 20260505094218 | 61 | 181 | 4.0 | 10.0 | 0.00 | 0.04 | 0.04 | 61 | 1009.2 |
| 20260505093718 | 60 | 0 | 4.0 | 10.0 | 0.00 | 0.04 | 0.04 | 62 | 1009.3 |
| 20260505093219 | 60 | 0 | 4.0 | 9.0 | 0.00 | 0.04 | 0.04 | 63 | 1009.2 |
| 20260505092716 | 60 | 0 | 3.0 | 9.0 | 0.00 | 0.04 | 0.04 | 64 | 1009.1 |
| 20260505092216 | 59 | 0 | 3.0 | 6.0 | 0.00 | 0.04 | 0.04 | 65 | 1009.0 |
| 20260505091716 | 59 | 0 | 3.0 | 6.0 | 0.00 | 0.04 | 0.04 | 65 | 1008.9 |
| 20260505091212 | 60 | 0 | 2.0 | 5.0 | 0.00 | 0.04 | 0.04 | 66 | 1009.0 |
| 20260505090711 | 60 | 192 | 1.0 | 4.0 | 0.00 | 0.04 | 0.04 | 65 | 1009.0 |
| 20260505090212 | 61 | 0 | 0.0 | 2.0 | 0.00 | 0.04 | 0.04 | 64 | 1008.8 |
| 20260505085713 | 61 | 261 | 0.0 | 0.0 | 0.00 | 0.04 | 0.04 | 63 | 1009.0 |
| 20260505085210 | 62 | 261 | 0.0 | 1.0 | 0.00 | 0.04 | 0.04 | 63 | 1008.8 |
| 20260505084713 | 62 | 261 | 1.0 | 2.0 | 0.00 | 0.04 | 0.04 | 62 | 1009.0 |
| 20260505084436 | 62 | 0 | 1.0 | 2.0 | 0.00 | 0.04 | 0.04 | 62 | 1008.8 |
| 20260505083702 | 62 | 0 | 0.0 | 2.0 | 0.00 | 0.04 | 0.04 | 60 | 1008.9 |
| 20260505083200 | 62 | 262 | 1.0 | 4.0 | 0.00 | 0.04 | 0.04 | 60 | 1008.9 |
| 20260505082658 | 63 | 261 | 1.0 | 4.0 | 0.00 | 0.04 | 0.04 | 60 | 1009.1 |
| 20260505082200 | 63 | 333 | 1.0 | 3.0 | 0.00 | 0.04 | 0.04 | 60 | 1009.1 |
| 20260505081924 | 63 | 332 | 1.0 | 4.0 | 0.00 | 0.04 | 0.04 | 60 | 1009.0 |
| 20260505081423 | 63 | 320 | 2.0 | 4.0 | 0.00 | 0.04 | 0.04 | 59 | 1009.1 |
| 20260505080924 | 63 | 311 | 3.0 | 10.0 | 0.00 | 0.04 | 0.04 | 59 | 1009.2 |
| 20260505080152 | 63 | 294 | 5.0 | 11.0 | 0.00 | 0.04 | 0.04 | 59 | 1009.1 |
| 20260505075652 | 64 | 0 | 4.0 | 11.0 | 0.00 | 0.04 | 0.04 | 59 | 1009.1 |
| 20260505075152 | 64 | 0 | 4.0 | 11.0 | 0.00 | 0.04 | 0.04 | 58 | 1009.0 |
| 20260505074924 | 64 | 0 | 7.0 | 14.0 | 0.00 | 0.04 | 0.04 | 58 | 1008.7 |
| 20260505074148 | 64 | 0 | 8.0 | 14.0 | 0.00 | 0.04 | 0.04 | 58 | 1008.6 |
| 20260505073648 | 63 | 0 | 7.0 | 16.0 | 0.00 | 0.04 | 0.04 | 57 | 1008.7 |
| 20260505073146 | 63 | 0 | 6.0 | 16.0 | 0.00 | 0.04 | 0.04 | 57 | 1008.6 |
| 20260505072646 | 63 | 0 | 6.0 | 12.0 | 0.00 | 0.04 | 0.04 | 58 | 1008.5 |
| 20260505072146 | 63 | 0 | 5.0 | 12.0 | 0.00 | 0.04 | 0.04 | 58 | 1008.6 |
| 20260505071643 | 63 | 0 | 5.0 | 13.0 | 0.00 | 0.04 | 0.04 | 58 | 1008.6 |
| 20260505071142 | 62 | 0 | 5.0 | 13.0 | 0.00 | 0.04 | 0.04 | 59 | 1008.6 |
| 20260505070641 | 62 | 0 | 4.0 | 9.0 | 0.00 | 0.04 | 0.04 | 59 | 1008.5 |
| 20260505070142 | 62 | 0 | 4.0 | 11.0 | 0.00 | 0.04 | 0.04 | 59 | 1008.6 |
| 20260505065640 | 62 | 0 | 5.0 | 11.0 | 0.00 | 0.04 | 0.04 | 60 | 1008.4 |
| 20260505065413 | 62 | 0 | 4.0 | 10.0 | 0.00 | 0.04 | 0.04 | 61 | 1008.5 |
| 20260505064635 | 62 | 0 | 3.0 | 8.0 | 0.00 | 0.04 | 0.04 | 61 | 1008.4 |
| 20260505064405 | 62 | 0 | 3.0 | 6.0 | 0.01 | 0.04 | 0.04 | 62 | 1008.4 |
| 20260505063635 | 61 | 0 | 4.0 | 8.0 | 0.01 | 0.04 | 0.04 | 62 | 1008.5 |
| 20260505063136 | 61 | 0 | 3.0 | 8.0 | 0.02 | 0.04 | 0.04 | 63 | 1008.4 |
| 20260505062634 | 61 | 0 | 3.0 | 8.0 | 0.04 | 0.04 | 0.04 | 64 | 1008.5 |
| 20260505062134 | 61 | 0 | 2.0 | 8.0 | 0.04 | 0.04 | 0.04 | 64 | 1008.5 |
| 20260505061627 | 61 | 0 | 3.0 | 10.0 | 0.04 | 0.04 | 0.04 | 64 | 1008.6 |
| 20260505061127 | 61 | 0 | 3.0 | 10.0 | 0.04 | 0.04 | 0.04 | 64 | 1008.5 |
| 20260505060629 | 61 | 0 | 3.0 | 8.0 | 0.04 | 0.04 | 0.04 | 64 | 1008.6 |
| 20260505060128 | 62 | 0 | 3.0 | 6.0 | 0.04 | 0.04 | 0.04 | 64 | 1008.7 |
| 20260505055627 | 62 | 0 | 3.0 | 6.0 | 0.04 | 0.04 | 0.04 | 64 | 1008.9 |
| 20260505055400 | 62 | 0 | 3.0 | 6.0 | 0.04 | 0.04 | 0.04 | 64 | 1008.8 |
| 20260505054854 | 63 | 0 | 3.0 | 8.0 | 0.04 | 0.04 | 0.04 | 64 | 1008.8 |
| 20260505054121 | 63 | 0 | 3.0 | 8.0 | 0.03 | 0.03 | 0.04 | 62 | 1008.9 |
| 20260505053621 | 64 | 0 | 3.0 | 8.0 | 0.03 | 0.03 | 0.03 | 61 | 1009.0 |
| 20260505053120 | 64 | 0 | 3.0 | 8.0 | 0.02 | 0.02 | 0.02 | 60 | 1009.0 |
| 20260505052618 | 64 | 0 | 4.0 | 9.0 | 0.00 | 0.00 | 0.00 | 56 | 1008.8 |
| 20260505052118 | 64 | 0 | 5.0 | 9.0 | 0.00 | 0.00 | 0.00 | 56 | 1008.8 |
| 20260505051843 | 64 | 0 | 5.0 | 9.0 | 0.00 | 0.00 | 0.00 | 55 | 1008.8 |
| 20260505051114 | 64 | 0 | 4.0 | 12.0 | 0.00 | 0.00 | 0.00 | 56 | 1008.8 |
| 20260505050612 | 64 | 0 | 4.0 | 12.0 | 0.00 | 0.00 | 0.00 | 56 | 1008.7 |
| 20260505050110 | 64 | 0 | 4.0 | 10.0 | 0.00 | 0.00 | 0.00 | 56 | 1008.8 |
| 20260505041608 | 63 | 0 | 2.0 | 8.0 | 0.00 | 0.00 | 0.00 | 57 | 1008.6 |
| 20260505041103 | 63 | 0 | 2.0 | 5.0 | 0.00 | 0.00 | 0.00 | 57 | 1008.6 |
| 20260505040602 | 63 | 0 | 2.0 | 5.0 | 0.00 | 0.00 | 0.00 | 57 | 1008.6 |
| 20260505040334 | 63 | 0 | 2.0 | 5.0 | 0.00 | 0.00 | 0.00 | 57 | 1008.7 |
| 20260505035832 | 64 | 0 | 2.0 | 4.0 | 0.00 | 0.00 | 0.00 | 57 | 1008.7 |
| 20260505035102 | 64 | 0 | 1.0 | 3.0 | 0.00 | 0.00 | 0.00 | 57 | 1008.7 |
| 20260505034556 | 64 | 0 | 0.0 | 3.0 | 0.00 | 0.00 | 0.00 | 57 | 1008.7 |
| 20260505034058 | 64 | 0 | 1.0 | 3.0 | 0.00 | 0.00 | 0.00 | 57 | 1008.7 |
| 20260505034054 | 64 | 0 | 0.0 | 2.0 | 0.00 | 0.00 | 0.00 | 57 | 1008.7 |
| 20260505033320 | 64 | 0 | 1.0 | 3.0 | 0.00 | 0.00 | 0.00 | 57 | 1008.8 |
| 20260505032549 | 64 | 0 | 1.0 | 3.0 | 0.00 | 0.00 | 0.00 | 57 | 1008.7 |
| 20260505032045 | 64 | 0 | 1.0 | 3.0 | 0.00 | 0.00 | 0.00 | 57 | 1008.7 |
| 20260505031545 | 64 | 0 | 1.0 | 3.0 | 0.00 | 0.00 | 0.00 | 57 | 1008.8 |
| 20260505031042 | 64 | 0 | 2.0 | 3.0 | 0.00 | 0.00 | 0.00 | 57 | 1008.9 |
| 20260505030544 | 64 | 0 | 1.0 | 4.0 | 0.00 | 0.00 | 0.00 | 57 | 1009.0 |
| 20260505030044 | 64 | 0 | 1.0 | 4.0 | 0.00 | 0.00 | 0.00 | 57 | 1009.1 |
| 20260505025813 | 64 | 0 | 1.0 | 3.0 | 0.00 | 0.00 | 0.00 | 57 | 1008.9 |
| 20260505025038 | 64 | 0 | 2.0 | 5.0 | 0.00 | 0.00 | 0.00 | 57 | 1009.0 |
| 20260505024808 | 64 | 0 | 2.0 | 5.0 | 0.00 | 0.00 | 0.00 | 57 | 1009.1 |
| 20260505024037 | 64 | 0 | 2.0 | 4.0 | 0.00 | 0.00 | 0.00 | 57 | 1009.1 |
| 20260505023536 | 64 | 0 | 2.0 | 5.0 | 0.00 | 0.00 | 0.00 | 56 | 1009.1 |
| 20260505023307 | 64 | 0 | 2.0 | 5.0 | 0.00 | 0.00 | 0.00 | 56 | 1009.4 |
| 20260505022536 | 64 | 0 | 3.0 | 6.0 | 0.00 | 0.00 | 0.00 | 56 | 1009.4 |
| 20260505022033 | 65 | 0 | 3.0 | 6.0 | 0.00 | 0.00 | 0.00 | 56 | 1009.7 |
| 20260505021533 | 65 | 0 | 3.0 | 6.0 | 0.00 | 0.00 | 0.00 | 56 | 1009.6 |
| 20260505021034 | 65 | 0 | 3.0 | 5.0 | 0.00 | 0.00 | 0.00 | 55 | 1009.8 |
| 20260505020533 | 65 | 0 | 3.0 | 5.0 | 0.00 | 0.00 | 0.00 | 55 | 1009.8 |
| 20260505020300 | 65 | 0 | 4.0 | 10.0 | 0.00 | 0.00 | 0.00 | 55 | 1009.8 |
| 20260505015530 | 65 | 0 | 5.0 | 10.0 | 0.00 | 0.00 | 0.00 | 54 | 1009.9 |
| 20260505015030 | 65 | 0 | 4.0 | 9.0 | 0.00 | 0.00 | 0.00 | 54 | 1009.8 |
| 20260505014534 | 66 | 0 | 5.0 | 10.0 | 0.00 | 0.00 | 0.00 | 54 | 1009.9 |
| 20260505014530 | 66 | 0 | 4.0 | 10.0 | 0.00 | 0.00 | 0.00 | 54 | 1009.9 |
| 20260505013527 | 66 | 0 | 4.0 | 9.0 | 0.00 | 0.00 | 0.00 | 54 | 1009.8 |
| 20260505013027 | 66 | 0 | 4.0 | 6.0 | 0.00 | 0.00 | 0.00 | 53 | 1009.9 |
| 20260505012526 | 67 | 0 | 4.0 | 9.0 | 0.00 | 0.00 | 0.00 | 53 | 1009.9 |
| 20260505012026 | 67 | 0 | 4.0 | 9.0 | 0.00 | 0.00 | 0.00 | 53 | 1009.7 |
| 20260505011526 | 67 | 0 | 4.0 | 8.0 | 0.00 | 0.00 | 0.00 | 53 | 1009.8 |
| 20260505011027 | 67 | 0 | 4.0 | 10.0 | 0.00 | 0.00 | 0.00 | 52 | 1009.8 |
| 20260505010527 | 67 | 0 | 5.0 | 11.0 | 0.00 | 0.00 | 0.00 | 53 | 1009.6 |
| 20260505010024 | 67 | 0 | 5.0 | 11.0 | 0.00 | 0.00 | 0.00 | 53 | 1009.5 |
| 20260505005524 | 67 | 0 | 5.0 | 10.0 | 0.00 | 0.00 | 0.00 | 52 | 1009.4 |
| 20260505005023 | 67 | 0 | 5.0 | 10.0 | 0.00 | 0.00 | 0.00 | 52 | 1009.4 |
| 20260505004524 | 68 | 0 | 5.0 | 11.0 | 0.00 | 0.00 | 0.00 | 51 | 1009.3 |
| 20260505004023 | 68 | 0 | 5.0 | 11.0 | 0.00 | 0.00 | 0.00 | 51 | 1009.3 |
| 20260505003523 | 68 | 0 | 5.0 | 10.0 | 0.00 | 0.00 | 0.00 | 51 | 1009.4 |
| 20260505003024 | 68 | 0 | 4.0 | 9.0 | 0.00 | 0.00 | 0.00 | 51 | 1009.3 |
| 20260505002524 | 68 | 0 | 4.0 | 8.0 | 0.00 | 0.00 | 0.00 | 51 | 1009.3 |
| 20260505002022 | 68 | 0 | 3.0 | 8.0 | 0.00 | 0.00 | 0.00 | 51 | 1009.1 |
| 20260505001522 | 68 | 0 | 4.0 | 8.0 | 0.00 | 0.00 | 0.00 | 50 | 1009.3 |
| 20260505001019 | 69 | 0 | 6.0 | 13.0 | 0.00 | 0.00 | 0.00 | 50 | 1009.3 |
| 20260505000520 | 69 | 0 | 6.0 | 13.0 | 0.00 | 0.00 | 0.00 | 50 | 1009.1 |
| 20260505000019 | 69 | 0 | 5.0 | 12.0 | 0.00 | 0.00 | 0.00 | 50 | 1009.1 |
| 20260504235515 | 69 | 0 | 5.0 | 12.0 | 0.00 | 0.00 | 0.00 | 50 | 1009.3 |
| 20260504235016 | 69 | 0 | 5.0 | 9.0 | 0.00 | 0.00 | 0.00 | 50 | 1009.3 |
| 20260504234515 | 69 | 0 | 5.0 | 12.0 | 0.00 | 0.00 | 0.00 | 49 | 1009.4 |
| 20260504234015 | 69 | 0 | 5.0 | 14.0 | 0.00 | 0.00 | 0.00 | 50 | 1009.4 |
| 20260504233514 | 69 | 0 | 6.0 | 14.0 | 0.00 | 0.00 | 0.00 | 49 | 1009.6 |
| 20260504233012 | 70 | 0 | 6.0 | 14.0 | 0.00 | 0.00 | 0.00 | 49 | 1009.6 |
| 20260504232744 | 70 | 0 | 4.0 | 9.0 | 0.00 | 0.00 | 0.00 | 49 | 1009.5 |
| 20260504232011 | 70 | 0 | 3.0 | 6.0 | 0.00 | 0.00 | 0.00 | 48 | 1009.4 |
| 20260504231513 | 70 | 0 | 4.0 | 11.0 | 0.00 | 0.00 | 0.00 | 48 | 1009.4 |
| 20260504231012 | 70 | 0 | 5.0 | 13.0 | 0.00 | 0.00 | 0.00 | 49 | 1009.5 |
| 20260504230511 | 70 | 0 | 5.0 | 13.0 | 0.00 | 0.00 | 0.00 | 48 | 1009.7 |
| 20260504230013 | 70 | 0 | 6.0 | 19.0 | 0.00 | 0.00 | 0.00 | 49 | 1009.7 |
| 20260504225510 | 71 | 0 | 6.0 | 19.0 | 0.00 | 0.00 | 0.00 | 47 | 1009.7 |
| 20260504225008 | 71 | 0 | 4.0 | 12.0 | 0.00 | 0.00 | 0.00 | 47 | 1009.7 |
| 20260504224507 | 71 | 155 | 4.0 | 10.0 | 0.00 | 0.00 | 0.00 | 48 | 1009.7 |
| 20260504224007 | 71 | 0 | 4.0 | 10.0 | 0.00 | 0.00 | 0.00 | 48 | 1009.9 |
| 20260504223508 | 71 | 0 | 5.0 | 12.0 | 0.00 | 0.00 | 0.00 | 49 | 1009.9 |
| 20260504223007 | 71 | 0 | 6.0 | 12.0 | 0.00 | 0.00 | 0.00 | 47 | 1009.8 |
| 20260504222506 | 71 | 0 | 6.0 | 13.0 | 0.00 | 0.00 | 0.00 | 48 | 1009.7 |
| 20260504222006 | 71 | 0 | 7.0 | 13.0 | 0.00 | 0.00 | 0.00 | 47 | 1009.6 |
| 20260504221507 | 71 | 0 | 8.0 | 14.0 | 0.00 | 0.00 | 0.00 | 47 | 1009.5 |
| 20260504221007 | 71 | 0 | 7.0 | 15.0 | 0.00 | 0.00 | 0.00 | 47 | 1009.6 |
| 20260504220506 | 71 | 0 | 8.0 | 16.0 | 0.00 | 0.00 | 0.00 | 47 | 1009.5 |
| 20260504220004 | 71 | 0 | 8.0 | 16.0 | 0.00 | 0.00 | 0.00 | 46 | 1009.5 |
| 20260504215501 | 71 | 0 | 7.0 | 16.0 | 0.00 | 0.00 | 0.00 | 47 | 1009.5 |
| 20260504215001 | 71 | 0 | 7.0 | 15.0 | 0.00 | 0.00 | 0.00 | 48 | 1009.4 |
| 20260504214500 | 71 | 0 | 9.0 | 16.0 | 0.00 | 0.00 | 0.00 | 47 | 1009.4 |
| 20260504214000 | 71 | 0 | 8.0 | 16.0 | 0.00 | 0.00 | 0.00 | 46 | 1009.6 |
| 20260504213458 | 71 | 0 | 7.0 | 14.0 | 0.00 | 0.00 | 0.00 | 48 | 1009.5 |
| 20260504212958 | 71 | 0 | 7.0 | 16.0 | 0.00 | 0.00 | 0.00 | 46 | 1009.5 |
| 20260504212458 | 71 | 0 | 7.0 | 16.0 | 0.00 | 0.00 | 0.00 | 47 | 1009.6 |
| 20260504211956 | 71 | 0 | 9.0 | 19.0 | 0.00 | 0.00 | 0.00 | 46 | 1009.5 |
| 20260504211459 | 72 | 0 | 8.0 | 19.0 | 0.00 | 0.00 | 0.00 | 45 | 1009.4 |
| 20260504210956 | 72 | 0 | 7.0 | 17.0 | 0.00 | 0.00 | 0.00 | 46 | 1009.6 |
| 20260504210726 | 72 | 0 | 6.0 | 12.0 | 0.00 | 0.00 | 0.00 | 45 | 1009.5 |
| 20260504210226 | 72 | 0 | 6.0 | 12.0 | 0.00 | 0.00 | 0.00 | 48 | 1009.6 |
| 20260504205453 | 72 | 0 | 6.0 | 13.0 | 0.00 | 0.00 | 0.00 | 46 | 1009.6 |
| 20260504204954 | 72 | 0 | 8.0 | 20.0 | 0.00 | 0.00 | 0.00 | 46 | 1009.7 |
| 20260504204450 | 72 | 0 | 10.0 | 20.0 | 0.00 | 0.00 | 0.00 | 50 | 1009.7 |
| 20260504203950 | 72 | 0 | 8.0 | 15.0 | 0.00 | 0.00 | 0.00 | 46 | 1009.7 |
| 20260504203450 | 72 | 0 | 8.0 | 15.0 | 0.00 | 0.00 | 0.00 | 45 | 1009.8 |
| 20260504203223 | 72 | 0 | 8.0 | 15.0 | 0.00 | 0.00 | 0.00 | 45 | 1009.8 |
| 20260504202449 | 73 | 0 | 8.0 | 18.0 | 0.00 | 0.00 | 0.00 | 47 | 1009.6 |
| 20260504201948 | 73 | 0 | 7.0 | 18.0 | 0.00 | 0.00 | 0.00 | 47 | 1009.8 |
| 20260504201449 | 72 | 0 | 7.0 | 15.0 | 0.00 | 0.00 | 0.00 | 45 | 1009.8 |
| 20260504200947 | 73 | 0 | 7.0 | 15.0 | 0.00 | 0.00 | 0.00 | 44 | 1009.8 |
| 20260504200448 | 73 | 0 | 8.0 | 20.0 | 0.00 | 0.00 | 0.00 | 46 | 1009.9 |
| 20260504195945 | 72 | 0 | 9.0 | 20.0 | 0.00 | 0.00 | 0.00 | 45 | 1009.9 |
| 20260504195718 | 72 | 0 | 10.0 | 21.0 | 0.00 | 0.00 | 0.00 | 46 | 1009.8 |
| 20260504194946 | 72 | 0 | 11.0 | 26.0 | 0.00 | 0.00 | 0.00 | 46 | 1009.8 |
| 20260504194444 | 72 | 0 | 12.0 | 26.0 | 0.00 | 0.00 | 0.00 | 47 | 1010.0 |
| 20260504193944 | 72 | 0 | 14.0 | 22.0 | 0.00 | 0.00 | 0.00 | 48 | 1009.8 |
| 20260504193444 | 73 | 0 | 11.0 | 22.0 | 0.00 | 0.00 | 0.00 | 47 | 1009.9 |
| 20260504192944 | 73 | 0 | 8.0 | 17.0 | 0.00 | 0.00 | 0.00 | 47 | 1010.0 |
| 20260504192446 | 73 | 0 | 9.0 | 19.0 | 0.00 | 0.00 | 0.00 | 46 | 1010.0 |
| 20260504191944 | 73 | 0 | 10.0 | 20.0 | 0.00 | 0.00 | 0.00 | 47 | 1010.1 |
| 20260504191444 | 73 | 0 | 8.0 | 20.0 | 0.00 | 0.00 | 0.00 | 48 | 1010.2 |
| 20260504190942 | 72 | 0 | 10.0 | 25.0 | 0.00 | 0.00 | 0.00 | 49 | 1010.1 |
| 20260504190444 | 71 | 0 | 11.0 | 23.0 | 0.00 | 0.00 | 0.00 | 50 | 1010.1 |
| 20260504190439 | 71 | 0 | 13.0 | 25.0 | 0.00 | 0.00 | 0.00 | 47 | 1010.2 |
| 20260504185439 | 71 | 0 | 11.0 | 19.0 | 0.00 | 0.00 | 0.00 | 47 | 1010.3 |
| 20260504184939 | 71 | 0 | 10.0 | 20.0 | 0.00 | 0.00 | 0.00 | 46 | 1010.4 |
| 20260504184438 | 72 | 0 | 8.0 | 20.0 | 0.00 | 0.00 | 0.00 | 46 | 1010.5 |
| 20260504184210 | 73 | 0 | 9.0 | 17.0 | 0.00 | 0.00 | 0.00 | 44 | 1010.6 |
| 20260504183712 | 73 | 0 | 9.0 | 17.0 | 0.00 | 0.00 | 0.00 | 45 | 1010.6 |
| 20260504182938 | 73 | 0 | 8.0 | 16.0 | 0.00 | 0.00 | 0.00 | 45 | 1010.6 |
| 20260504182439 | 73 | 0 | 7.0 | 18.0 | 0.00 | 0.00 | 0.00 | 47 | 1010.7 |
| 20260504181944 | 72 | 0 | 7.0 | 16.0 | 0.00 | 0.00 | 0.00 | 45 | 1010.8 |
| 20260504181939 | 72 | 0 | 7.0 | 18.0 | 0.00 | 0.00 | 0.00 | 44 | 1010.7 |
| 20260504180937 | 72 | 0 | 8.0 | 15.0 | 0.00 | 0.00 | 0.00 | 47 | 1010.7 |
| 20260504180437 | 72 | 0 | 8.0 | 16.0 | 0.00 | 0.00 | 0.00 | 47 | 1010.8 |
| 20260504175937 | 71 | 0 | 9.0 | 18.0 | 0.00 | 0.00 | 0.00 | 45 | 1010.8 |
| 20260504175438 | 71 | 0 | 9.0 | 18.0 | 0.00 | 0.00 | 0.00 | 49 | 1011.0 |
| 20260504174938 | 71 | 0 | 9.0 | 17.0 | 0.00 | 0.00 | 0.00 | 47 | 1010.9 |
| 20260504174435 | 70 | 0 | 10.0 | 25.0 | 0.00 | 0.00 | 0.00 | 48 | 1011.0 |
| 20260504173938 | 70 | 0 | 10.0 | 25.0 | 0.00 | 0.00 | 0.00 | 46 | 1011.2 |
| 20260504173436 | 70 | 0 | 8.0 | 19.0 | 0.00 | 0.00 | 0.00 | 46 | 1011.2 |
| 20260504172938 | 71 | 0 | 7.0 | 16.0 | 0.00 | 0.00 | 0.00 | 46 | 1011.2 |
| 20260504172434 | 71 | 0 | 7.0 | 16.0 | 0.00 | 0.00 | 0.00 | 45 | 1011.2 |
| 20260504171934 | 71 | 0 | 10.0 | 20.0 | 0.00 | 0.00 | 0.00 | 45 | 1011.4 |
| 20260504171703 | 71 | 0 | 10.0 | 20.0 | 0.00 | 0.00 | 0.00 | 47 | 1011.2 |
| 20260504170930 | 71 | 0 | 8.0 | 15.0 | 0.00 | 0.00 | 0.00 | 46 | 1011.2 |
| 20260504170430 | 71 | 0 | 8.0 | 16.0 | 0.00 | 0.00 | 0.00 | 47 | 1011.3 |
| 20260504170201 | 70 | 0 | 10.0 | 21.0 | 0.00 | 0.00 | 0.00 | 49 | 1011.3 |